Tracking 19247 objects as of 22-Sep-2018
HD Live streaming from Space Station
objects crossing your sky now

FENGYUN 1C DEB

Track FENGYUN 1C DEB now!
10-day predictions


NORAD ID: 33700
Int'l Code: 1999-025DGM
Perigee: 561.5 km
Apogee: 711.5 km
Inclination: 99.1 °
Period: 97.3 minutes
Semi major axis: 7007 km
RCS: 0.0108 m2 (small)
Launch date: May 10, 1999
Source: People's Republic of China (PRC)
Launch site: Taiyaun Space Center, China (TSC)

Note: This is SATELLITE DEBRIS
aabbcc
Your satellite tracking list
Your tracking list is empty




NASA's NSSDC Master Catalog

Two Line Element Set (TLE):
1 33700U 99025DGM 18263.08467935  .00001045  00000-0  13423-3 0  9996
2 33700  99.1046   0.0108 0106967  88.9857 272.3604 14.79986424570164
Source of the keplerian elements: AFSPC